This is the latest recevied weather packets stored in our database for station/object KC3LDA. If no packets are shown the sender has not sent any weather packets the latest 1 day(s).
| Time | Temp. | Humidity | Pressure | Rain* | Wind** | Luminosity | Snow |
|---|---|---|---|---|---|---|---|
| 1778029755 | 14.44° C | 88% | 1008.1 hPa | 0 mm | - | 0 W/m² | - |
| 1778029454 | 14.44° C | 87% | 1008.1 hPa | 0 mm | - | 0 W/m² | - |
| 1778028848 | 15° C | 87% | 1007.8 hPa | 0 mm | - | 0 W/m² | - |
| 1778028241 | 15° C | 87% | 1007.9 hPa | 0 mm | - | 0 W/m² | - |
| 1778027633 | 15° C | 86% | 1007.5 hPa | 0 mm | - | 0 W/m² | - |
| 1778027329 | 15° C | 86% | 1007.7 hPa | 0 mm | - | 0 W/m² | - |
| 1778023997 | 15.56° C | 85% | 1006.5 hPa | 0 mm | - | 19 W/m² | - |
| 1778023694 | 15.56° C | 85% | 1006.6 hPa | 0 mm | - | 23 W/m² | - |
| 1778023088 | 15° C | 86% | 1006.5 hPa | 0 mm | - | 30 W/m² | - |
| 1778021877 | 15.56° C | 85% | 1006.4 hPa | 0 mm | - | 69 W/m² | - |
| 1778020665 | 15.56° C | 85% | 1006.2 hPa | 0 mm | - | 114 W/m² | - |
| 1778020057 | 15.56° C | 85% | 1005.9 hPa | 0 mm | - | 125 W/m² | - |
| 1778019147 | 15.56° C | 84% | 1006.2 hPa | 0 mm | - | 205 W/m² | - |
| 1778018844 | 15.56° C | 84% | 1006.1 hPa | 0 mm | - | 212 W/m² | - |
| 1778018240 | 15.56° C | 83% | 1006.2 hPa | 0 mm | - | 117 W/m² | - |
| 1778017937 | 16.11° C | 84% | 1006 hPa | 0 mm | - | 307 W/m² | - |
| 1778013999 | 15.56° C | 84% | 1005.8 hPa | 0 mm | - | 439 W/m² | - |
| 1778011877 | 16.11° C | 84% | 1005.9 hPa | 0 mm | - | 570 W/m² | - |
| 1778010968 | 16.11° C | 84% | 1006 hPa | 0 mm | - | 643 W/m² | - |
| 1778010058 | 15.56° C | 85% | 1006.1 hPa | 0 mm | - | 671 W/m² | - |
| 1778008848 | 16.11° C | 85% | 1006.5 hPa | 0 mm | - | 704 W/m² | - |
| 1778007640 | 16.11° C | 84% | 1006.9 hPa | 0 mm | - | 759 W/m² | - |
| 1778007337 | 16.11° C | 85% | 1007.2 hPa | 0 mm | - | 772 W/m² | - |
| 1778006427 | 16.11° C | 84% | 1007.3 hPa | 0 mm | - | 801 W/m² | - |
| 1778006124 | 16.11° C | 85% | 1007.5 hPa | 0 mm | - | 809 W/m² | - |
* Rain latest hour (hover to see other rain measurements)
** Current wind speed in m/s (hover to see current wind gust speed)